Location: Izdebno
(52.6670°N, 16.2170°E)
Time: 12:14:51
(UTC+02:00)

A-11 Canister half - Pass Details

Date: 26 February 2024
Orbit: 1525 x 1683 km, 47.3° (Epoch: 24 April)

Event Time Altitude Azimuth Distance (km) Brightness Sun altitude
Rises 23:03:25 0° 260° (W) 4,733 11.7 -44.1°
Reaches altitude 10° 23:06:32 10° 258° (WSW) 3,733 11.1 -44.2°
Enters shadow 23:07:24 13° 256° (WSW) 3,461 10.8 -44.3°
